Weather History for KISQ - November, 2014

Change the Weather History Date:

Thursday, November 6, 2014

  Actual Average Record
Temperature  
Mean Temperature 33 °F -  
Max Temperature 37 °F 45 °F 62 °F (2008)
Min Temperature 29 °F 29 °F 6 °F (1991)
Degree Days  
Heating Degree Days 32    
Moisture  
Dew Point 31 °F    
Average Humidity 90    
Maximum Humidity 99    
Minimum Humidity 68    
Precipitation  
Precipitation 0.01 in - - ()
Sea Level Pressure  
Sea Level Pressure 30.01 in    
Wind  
Wind Speed 7 mph (North)    
Max Wind Speed 17 mph    
Max Gust Speed 25 mph    
Visibility 10 miles    
Events Rain , Snow    
Averages and records for this station are not official NWS values.
T = Trace of Precipitation, MM = Missing Value Source: NWS Daily Summary

Daily Weather History Graph

Daily Weather History Graph

Search for Another Location

Airport or City:

Trip Planner

Search our weather history database for the weather conditions in past years. The results will help you decide how hot, cold, wet, or windy it might be!

Date:

Astronomy

Nov. 06, 2014 Rise Set
Actual Time 7:32 AM EST 5:23 PM EST
Civil Twilight 7:00 AM EST 5:55 PM EST
Nautical Twilight 6:25 AM EST 6:30 PM EST
Astronomical Twilight 5:50 AM EST 7:05 PM EST
Moon 5:32 PM EST (11/6) 7:00 AM EST (11/6)
Length of Visible Light 10h 54m
Length of Day
9h 51m
Full, 100% of the Moon is Illuminated
Nov 6
Full
Nov 6
Full
Nov 14
Last Quarter
Nov 22
New
Nov 29
First Quarter

Hourly Weather History & Observations

Time (EST) Temp. Windchill Dew Point Humidity Pressure Visibility Wind Dir Wind Speed Gust Speed Precip Events Conditions
12:14 AM 33.3 °F 30.2 °F 32.5 °F 97% 29.99 in 5.0 mi NE 3.5 mph - N/A   Overcast
12:34 AM 32.9 °F 29.8 °F 32.4 °F 98% 29.98 in 5.0 mi NNE 3.5 mph - N/A   Overcast
12:54 AM 32.9 °F 27.5 °F 32.4 °F 98% 29.97 in 7.0 mi NNE 5.8 mph - 0.01 in Rain Light Rain
1:13 AM 32.9 °F 27.5 °F 32.2 °F 97% 29.96 in 7.0 mi NNE 5.8 mph - N/A Snow Light Snow
1:34 AM 32.9 °F 27.5 °F 32.4 °F 98% 29.95 in 7.0 mi NNE 5.8 mph - N/A Snow Light Snow
1:54 AM 33.1 °F 27.7 °F 32.5 °F 98% 29.95 in 7.0 mi NE 5.8 mph - N/A Snow Light Snow
2:14 AM 32.9 °F 26.7 °F 32.2 °F 97% 29.94 in 5.0 mi NE 6.9 mph - N/A Snow Light Snow
2:34 AM 32.9 °F 26.7 °F 32.4 °F 98% 29.94 in 10.0 mi NE 6.9 mph - N/A Snow Light Snow
2:54 AM 32.7 °F 27.3 °F 32.2 °F 98% 29.93 in 5.0 mi NNE 5.8 mph - N/A Snow Light Snow
3:14 AM 32.9 °F 27.5 °F 32.2 °F 97% 29.93 in 7.0 mi NNE 5.8 mph - N/A Snow Light Snow
3:34 AM 32.9 °F 25.9 °F 32.5 °F 99% 29.92 in 10.0 mi NNE 8.1 mph - N/A Rain Light Rain
3:54 AM 33.1 °F 26.9 °F 32.7 °F 99% 29.92 in 10.0 mi NNE 6.9 mph - N/A Rain Light Rain
4:14 AM 33.4 °F 28.1 °F 32.9 °F 98% 29.92 in 10.0 mi NNE 5.8 mph - N/A   Light Drizzle
4:34 AM 33.8 °F 27.7 °F 33.1 °F 97% 29.92 in 10.0 mi NNE 6.9 mph - N/A Rain Light Rain
4:53 AM 33.8 °F 27.0 °F 33.1 °F 97% 29.92 in 10.0 mi North 8.1 mph - N/A Rain Light Rain
5:14 AM 33.4 °F 25.9 °F 32.9 °F 98% 29.93 in 10.0 mi North 9.2 mph - N/A Rain Rain
5:34 AM 33.4 °F 25.9 °F 32.9 °F 98% 29.93 in 10.0 mi NNE 9.2 mph - N/A   Light Drizzle
5:54 AM 33.3 °F 26.4 °F 32.5 °F 97% 29.93 in 10.0 mi NNE 8.1 mph - N/A Rain Light Rain
6:14 AM 33.3 °F 27.1 °F 32.5 °F 97% 29.93 in 10.0 mi NNE 6.9 mph - N/A   Light Drizzle
6:34 AM 33.4 °F 27.3 °F 32.9 °F 98% 29.94 in 10.0 mi North 6.9 mph - N/A Rain Rain
6:54 AM 33.3 °F 27.1 °F 32.7 °F 98% 29.94 in 10.0 mi North 6.9 mph - N/A Rain Light Rain
7:14 AM 33.3 °F 27.1 °F 32.9 °F 99% 29.94 in 10.0 mi North 6.9 mph - N/A Rain Light Rain
7:33 AM 33.6 °F 28.4 °F 32.9 °F 97% 29.94 in 10.0 mi North 5.8 mph - N/A Rain Rain
7:54 AM 33.8 °F 28.6 °F 32.9 °F 96% 29.95 in 10.0 mi North 5.8 mph - N/A   Light Drizzle
8:14 AM 34.0 °F 28.8 °F 33.1 °F 96% 29.95 in 10.0 mi North 5.8 mph - N/A   Light Drizzle
8:34 AM 34.3 °F 28.4 °F 33.4 °F 97% 29.96 in 10.0 mi North 6.9 mph - N/A Rain Light Rain
8:54 AM 35.1 °F 28.6 °F 34.0 °F 96% 29.96 in 10.0 mi North 8.1 mph - N/A   Light Drizzle
9:14 AM 35.1 °F 29.3 °F 33.8 °F 95% 29.97 in 10.0 mi North 6.9 mph - N/A   Overcast
9:54 AM 35.6 °F 30.7 °F 34.0 °F 94% 29.98 in 10.0 mi North 5.8 mph - N/A   Overcast
10:13 AM 35.8 °F 30.1 °F 34.3 °F 94% 29.99 in 10.0 mi North 6.9 mph - N/A   Overcast
10:34 AM 36.1 °F 31.4 °F 34.5 °F 94% 29.99 in 10.0 mi North 5.8 mph - N/A   Overcast
10:53 AM 36.0 °F 31.1 °F 34.2 °F 93% 30.00 in 10.0 mi North 5.8 mph - N/A   Overcast
11:14 AM 36.5 °F 30.3 °F 34.0 °F 91% 30.00 in 10.0 mi North 8.1 mph - N/A   Overcast
11:34 AM 37.4 °F 31.4 °F 34.5 °F 89% 30.00 in 10.0 mi North 8.1 mph - N/A   Overcast
11:54 AM 37.0 °F 30.4 °F 34.0 °F 89% 30.00 in 10.0 mi North 9.2 mph - N/A   Overcast
12:14 PM 37.2 °F 29.6 °F 33.6 °F 87% 30.00 in 10.0 mi North 11.5 mph - N/A   Overcast
12:34 PM 37.9 °F 29.6 °F 34.2 °F 86% 30.00 in 10.0 mi North 13.8 mph - N/A   Overcast
12:54 PM 37.6 °F 28.8 °F 32.9 °F 83% 30.01 in 10.0 mi North 15.0 mph 19.6 mph N/A   Overcast
1:14 PM 37.8 °F 29.4 °F 32.2 °F 80% 30.01 in 10.0 mi North 13.8 mph 18.4 mph N/A   Overcast
1:33 PM 37.8 °F 30.2 °F 31.6 °F 79% 30.02 in 10.0 mi North 11.5 mph 17.3 mph N/A   Overcast
1:54 PM 37.4 °F 28.2 °F 32.0 °F 81% 30.02 in 10.0 mi North 16.1 mph 20.7 mph N/A   Overcast
2:14 PM 36.5 °F 28.2 °F 31.6 °F 83% 30.02 in 10.0 mi North 12.7 mph 23.0 mph N/A   Overcast
2:33 PM 37.0 °F 28.9 °F 31.8 °F 81% 30.03 in 10.0 mi NNW 12.7 mph 19.6 mph N/A   Overcast
2:54 PM 37.4 °F 28.2 °F 29.1 °F 72% 30.03 in 10.0 mi NNW 16.1 mph 24.2 mph N/A   Overcast
3:14 PM 37.4 °F 28.9 °F 27.9 °F 68% 30.03 in 10.0 mi North 13.8 mph 25.3 mph N/A   Overcast
3:34 PM 37.0 °F 27.4 °F 27.5 °F 68% 30.03 in 10.0 mi North 17.3 mph 24.2 mph N/A   Overcast
3:54 PM 37.6 °F 30.0 °F 28.0 °F 68% 30.03 in 10.0 mi North 11.5 mph 20.7 mph N/A   Overcast
4:13 PM 36.1 °F 26.9 °F 28.4 °F 73% 30.05 in 10.0 mi NNW 15.0 mph 21.9 mph N/A   Overcast
4:34 PM 35.4 °F 27.3 °F 29.3 °F 78% 30.06 in 7.0 mi NNW 11.5 mph 17.3 mph N/A   Overcast
4:54 PM 35.2 °F 28.1 °F 29.1 °F 78% 30.06 in 10.0 mi NNW 9.2 mph 19.6 mph N/A   Overcast
5:13 PM 35.6 °F 27.5 °F 26.8 °F 70% 30.06 in 10.0 mi NNW 11.5 mph - N/A   Overcast
5:34 PM 35.1 °F 27.9 °F 26.4 °F 71% 30.07 in 10.0 mi NNW 9.2 mph - N/A   Overcast
5:53 PM 35.2 °F 27.6 °F 26.4 °F 70% 30.08 in 10.0 mi NNW 10.4 mph 16.1 mph N/A   Overcast
6:14 PM 35.1 °F 28.6 °F 26.8 °F 72% 30.08 in 10.0 mi NNW 8.1 mph - N/A   Overcast
6:34 PM 34.7 °F 25.9 °F 28.6 °F 78% 30.09 in 10.0 mi NNW 12.7 mph 18.4 mph N/A   Overcast
6:54 PM 34.0 °F 26.6 °F 29.3 °F 83% 30.09 in 10.0 mi NNW 9.2 mph 16.1 mph N/A   Overcast
7:14 PM 33.8 °F 26.4 °F 29.8 °F 85% 30.10 in 10.0 mi NW 9.2 mph 17.3 mph N/A   Overcast
7:34 PM 33.8 °F 27.7 °F 30.0 °F 86% 30.10 in 10.0 mi NNW 6.9 mph - N/A   Overcast
7:54 PM 33.1 °F 26.9 °F 29.5 °F 87% 30.10 in 10.0 mi NW 6.9 mph - N/A   Overcast
8:33 PM 32.0 °F 26.4 °F 29.8 °F 92% 30.10 in 10.0 mi NW 5.8 mph - N/A   Mostly Cloudy
8:54 PM 32.0 °F 26.4 °F 30.2 °F 93% 30.10 in 10.0 mi NW 5.8 mph - N/A   Mostly Cloudy
9:14 PM 31.6 °F 26.0 °F 29.7 °F 92% 30.11 in 10.0 mi NW 5.8 mph - N/A   Mostly Cloudy
9:33 PM 31.1 °F 25.4 °F 29.8 °F 95% 30.11 in 10.0 mi NW 5.8 mph - N/A   Scattered Clouds
9:54 PM 30.9 °F 26.2 °F 29.8 °F 96% 30.11 in 10.0 mi NW 4.6 mph - N/A   Mostly Cloudy
10:14 PM 30.4 °F 24.5 °F 29.3 °F 96% 30.10 in 10.0 mi WNW 5.8 mph - N/A Snow Light Snow
10:34 PM 30.7 °F 24.1 °F 29.8 °F 96% 30.10 in 10.0 mi NW 6.9 mph - N/A   Clear
10:54 PM 30.4 °F 23.6 °F 29.5 °F 96% 30.10 in 10.0 mi WNW 6.9 mph - N/A   Scattered Clouds
11:13 PM 29.8 °F 23.9 °F 28.6 °F 95% 30.10 in 10.0 mi WNW 5.8 mph - N/A   Scattered Clouds
11:34 PM 30.2 °F 24.3 °F 29.1 °F 96% 30.10 in 10.0 mi WNW 5.8 mph - N/A   Scattered Clouds
11:53 PM 30.6 °F 24.7 °F 28.8 °F 93% 30.10 in 10.0 mi NW 5.8 mph - N/A   Mostly Cloudy